Location: ???????
(55.8719°N, 38.1523°E)
Time: 21:46:45
(UTC+00:00)

USA 229 DEB - Pass Details

Date: 14 April 2024
Orbit: 892 x 1319 km, 63.4° (Epoch: 18 May)

Event Time Altitude Azimuth Distance (km) Brightness Sun altitude
Rises 01:34:29 0° 301° (WNW) 3,833 6.3 -7.2°
Reaches altitude 10° 01:37:03 10° 305° (NW) 2,937 5.8 -6.9°
Maximum altitude 01:44:04 65° 28° (NNE) 1,276 4.4 -6.0°
Drops below altitude 10° 01:51:49 10° 110° (ESE) 3,230 6.9 -5.0°
Sets 01:54:45 0° 113° (ESE) 4,239 7.5 -4.6°
